Location: Lakeview Terrace
(41.4931°N, 81.7101°W)
Time: 20:18:43
(UTC+00:00)

H-2A R/B - Pass Details

Date: 29 October 2020
Orbit: 733 x 837 km, 98.2° (Epoch: 03 December)

Event Time Altitude Azimuth Distance (km) Brightness Sun altitude
Rises 22:59:00 0° 118° (ESE) 3,364 4.9 -7.0°
Reaches altitude 10° 23:02:11 10° 98° (E) 2,444 4.0 -7.6°
Maximum altitude 23:05:27 16° 61° (ENE) 2,033 3.6 -8.2°
Drops below altitude 10° 23:08:43 10° 24° (NNE) 2,459 4.3 -8.8°
Sets 23:11:56 0° 4° (N) 3,395 5.2 -9.4°
